Weather History for Seretse Khama, Botswana

Change the Weather History Date:

Wednesday, November 30, 2011

  Actual Average Record
Temperature  
Mean Temperature 76 °F -  
Max Temperature 83 °F 86 °F 95 °F (2008)
Min Temperature 68 °F 64 °F 62 °F (1996)
Cooling Degree Days 10    
Growing Degree Days 26 (Base 50)    
Moisture  
Dew Point 57 °F    
Average Humidity 55    
Maximum Humidity 73    
Minimum Humidity 39    
Precipitation  
Precipitation 0.00 in - - ()
Sea Level Pressure  
Sea Level Pressure 30.09 in    
Wind  
Wind Speed 6 mph ()    
Max Wind Speed 10 mph    
Max Gust Speed -    
Visibility 6.2 miles    
Events      
Averages and records for this station are not official NWS values.
T = Trace of Precipitation, MM = Missing Value Source: Averaged Metar Reports

Daily Weather History Graph

Daily Weather History Graph

Search for Another Location

Airport:

Trip Planner

Search our weather history database for the weather conditions in past years. The results will help you decide how hot, cold, wet, or windy it might be!

Date:

Astronomy

Nov. 30, 2011 Rise Set
Actual Time 5:19 AM CAT 6:50 PM CAT
Civil Twilight 4:53 AM CAT 7:16 PM CAT
Nautical Twilight 4:23 AM CAT 7:46 PM CAT
Astronomical Twilight 3:52 AM CAT 8:17 PM CAT
Moon 10:18 AM CAT (11/30) 11:23 PM CAT (11/30)
Length of Visible Light 14h 22m
Length of Day
13h 31m
Waxing Crescent, 30% of the Moon is Illuminated
Nov 30
Waxing Crescent
Dec 2
First Quarter
Dec 10
Full
Dec 18
Last Quarter
Dec 24
New

Hourly Weather History & Observations

Time (CAT) Temp. Heat Index Dew Point Humidity Pressure Visibility Wind Dir Wind Speed Gust Speed Precip Events Conditions
12:00 AM 73.4 °F - 57.2 °F 57% 30.09 in - ENE 4.6 mph - N/A   Clear
1:00 AM 71.6 °F - 57.2 °F 60% 30.09 in - ESE 4.6 mph - N/A   Clear
2:00 AM 71 °F - 57 °F 52%  in 6 mi East 8.1 mph - -   Mostly Cloudy
2:00 AM 71.6 °F - 57.2 °F 60% 30.09 in - ESE 4.6 mph - N/A   Clear
3:00 AM 69.8 °F - 57.2 °F 64% 30.09 in - East 6.9 mph - N/A   Clear
4:00 AM 69.8 °F - 57.2 °F 64% 30.09 in - East 5.8 mph - N/A   Clear
5:00 AM 68.0 °F - 59.0 °F 73% 30.09 in 6.2 mi SSE 3.5 mph - N/A   Scattered Clouds
6:00 AM 69.8 °F - 59.0 °F 68% 30.12 in - East 4.6 mph - N/A   Clear
7:00 AM 69.8 °F - 59.0 °F 68% 30.15 in - ENE 5.8 mph - N/A   Clear
8:00 AM 72 °F - 58 °F 51%  in 6 mi East 6.9 mph - -   Mostly Cloudy
8:00 AM 71.6 °F - 57.2 °F 60% 30.15 in - East 6.9 mph - N/A   Clear
9:00 AM 75.2 °F - 57.2 °F 53% 30.15 in 6.2 mi North 10.4 mph - N/A   Scattered Clouds
10:00 AM 77.0 °F - 53.6 °F 44% 30.15 in 6.2 mi North 8.1 mph - N/A   Scattered Clouds
11:00 AM 77.0 °F - 55.4 °F 47% 30.15 in 6.2 mi NE 8.1 mph - N/A   Mostly Cloudy
12:00 PM 77.0 °F - 57.2 °F 50% 30.12 in 6.2 mi North 5.8 mph - N/A   Scattered Clouds
1:00 PM 78.8 °F - 59.0 °F 51% 30.09 in 6.2 mi NNW 9.2 mph - N/A   Mostly Cloudy
2:00 PM 78.8 °F - 59.0 °F 51% 30.09 in 6.2 mi North 9.2 mph - N/A   Mostly Cloudy
3:00 PM 78.8 °F - 55.4 °F 44% 30.06 in 6.2 mi NNE 6.9 mph - N/A   Mostly Cloudy
4:00 PM 80.6 °F 80.3 °F 53.6 °F 39% 30.04 in 6.2 mi NE 6.9 mph - N/A   Mostly Cloudy
5:00 PM 78.8 °F - 55.4 °F 44% 30.04 in 6.2 mi ENE 8.1 mph - N/A   Mostly Cloudy
6:00 PM 77.0 °F - 55.4 °F 47% 30.04 in 6.2 mi ENE 10.4 mph - N/A   Mostly Cloudy
7:00 PM 77.0 °F - 55.4 °F 47% 30.04 in 6.2 mi ENE 9.2 mph - N/A   Scattered Clouds
8:00 PM 74 °F - 56 °F 44%  in 6 mi ENE 8.1 mph - -   Scattered Clouds
8:00 PM 73.4 °F - 57.2 °F 57% 30.04 in 6.2 mi ENE 8.1 mph - N/A   Scattered Clouds
9:00 PM 71.6 °F - 57.2 °F 60% 30.04 in 6.2 mi ENE 8.1 mph - N/A   Scattered Clouds
10:00 PM 71.6 °F - 59.0 °F 64% 30.06 in - NE 6.9 mph - N/A   Clear
11:00 PM 69.8 °F - 59.0 °F 68% 30.06 in - ENE 5.8 mph - N/A   Clear